www.pogodaiklimat.ru

АРХИВ ПОГОДЫ в Лос-Анджелесе

Время (UTC), дата Ветер
(напр.,м/с)
 
Видим.   Явления Облачность Т
(С)
Тd
(С)
f
(%)
Тe
(С)
Тes
(С)
Комфортность

P
(гПа)

Po
(гПа)
Тmin
(С)
Tmax
(С)
R
(мм)
SD
(см)
08:53 21.05 ЮЗ  16 км    8/5 540 м
[средняя] 
+14.4  +10.0  75  +13  +13    1014.0  1009.5         
08:59 21.05     н/о    10/10 870 м  +14.4  +10.0  75  +14  +14      1009.5         
09:22 21.05 ЮЗ  16 км    8/8 660 м  +13.9  +9.4  74  +13  +13      1009.2         
09:50 21.05 нст  16 км    8/8 660 м  +13.0  +9.0  77  +13  +13      1009.2         
09:53 21.05 нст  16 км    8/8 660 м  +13.9  +10.0  77  +14  +14    1013.7  1009.2         
10:53 21.05 З  16 км    8/8 660 м  +14.4  +10.0  75  +14  +14    1013.5  1009.2  +13.3  +14.4     
11:37 21.05 ЮЗ  16 км    8/8 540 м
[средняя верхняя] 
+14.4  +10.6  78  +14  +14      1008.9         
11:53 21.05 ЮЗ  16 км    8/8 540 м
[средняя] 
+14.4  +10.0  75  +14  +14    1013.3  1008.9         
12:53 21.05 ЮЗ  14 км    10/10 570 м  +14.4  +10.6  78  +14  +14    1013.5  1008.9         
13:53 21.05 З  16 км    8/8 570 м  +15.0  +10.6  75  +15  +15    1013.3  1008.9         
14:53 21.05 ЮЗ  14 км    н/о  +16.0  +11.0  72  +15  +15      1008.9         
15:13 21.05 ЮЗ  14 км    8/8 570 м  +16.7  +11.1  70  +16  +17      1008.9         
15:24 21.05 З  14 км    8/8 570 м
[средняя] 
+15.6  +11.7  78  +14  +15      1008.9         
15:53 21.05 З  14 км    8/5 450 м
[средняя] 
+15.6  +11.1  75  +15  +17      1008.9         
16:53 21.05 ЮЗ  14 км    8/5 540 м
[средняя] 
+16.1  +10.6  70  +15  +16      1008.5         
17:53 21.05 З  14 км    5/2 540 м
[средняя] 
+16.7  +10.6  67  +15  +17      1008.2         
18:53 21.05 З  14 км    5/2 300 м
[средняя] 
+17.2  +11.1  67  +16  +17      1007.9         
19:53 21.05 ЮЗ  8
{13} 
16 км    5/2 300 м
[средняя] 
+18.3  +9.4  56  +18  +19      1006.5         
20:53 21.05 ЮЗ  9
{13} 
16 км    5/2 750 м
[средняя] 
+18.3  +9.4  56  +17  +18      1005.8         
21:53 21.05 З  11
{16} 
16 км    5/2 750 м
[верхняя] 
+18.3  +9.4  56  +17  +17      1005.2         
22:53 21.05 З  13
{15} 
16 км    8/2 1800 м
[верхняя] 
+17.8  +10.0  60  +16  +16      1004.2  +16.1  +18.9     
23:53 21.05 З  12  16 км    8/2 1800 м
[средняя] 
+17.2  +10.0  63  +15  +15      1003.5         
00:53 22.05 З  10
{13} 
16 км    8/2 1800 м
[средняя] 
+16.7  +9.4  62  +15  +15      1002.8         
01:53 22.05 З  16 км    5/2 1800 м
[средняя] 
+16.7  +8.9  60  +15  +15      1002.8         
02:53 22.05   16 км    2/2 1800 м
[верхняя] 
+16.1  +9.4  64  +16  +16      1002.8         
03:53 22.05   16 км    5/2 1260 м
[средняя верхняя] 
+15.6  +9.4  67  +15  +15    1007.9  1003.5         
04:53 22.05   16 км    5/2 1200 м
[средняя] 
+15.6  +10.0  69  +15  +15    1008.0  1003.5  +15.6  +17.8     
05:53 22.05   16 км    8/8 1200 м
[средняя] 
+16.1  +9.4  64  +16  +16    1007.8  1003.5         
06:53 22.05 З  6
{9} 
16 км    5/2 1200 м
[средняя] 
+15.0  +9.4  69  +13  +13    1007.3  1002.8         
07:53 22.05 З  16 км    5/2 1200 м
[средняя] 
+14.4  +10.0  75  +13  +13    1006.6  1002.1         
08:53 22.05 З  16 км    5/2 1200 м
[средняя] 
+13.9  +9.4  74  +12  +12    1006.1  1001.8         
09:53 22.05 З  16 км    8/2 360 м
[средняя верхняя] 
+13.9  +9.4  74  +12  +12    1006.0  1001.5         
10:53 22.05 З  16 км    8/8 360 м
[средняя верхняя] 
+13.9  +8.9  72  +11  +11    1005.8  1001.5  +13.3  +16.7     
11:53 22.05 З  16 км    8/2 360 м
[средняя верхняя] 
+13.3  +8.3  72  +12  +12    1005.7  1001.1         
12:53 22.05 С  16 км    5/2 420 м
[средняя] 
+15.0  +8.9  67  +15  +15    1006.2  1001.8         
13:53 22.05 З  16 км    5/2 420 м
[средняя] 
+15.6  +7.2  57  +15  +16    1006.5  1002.1         
14:53 22.05 З  16 км    2/2 360 м  +16.7  +7.2  53  +17  +19    1006.5  1002.1         
15:53 22.05 З  16 км    2/2 300 м  +17.2  +7.2  52  +16  +18    1006.4  1001.8         
16:53 22.05 З  16 км    5/5 300 м  +17.8  +7.2  50  +17  +18    1006.4  1001.8  +13.3  +17.8     
17:53 22.05 З  16 км    5/5 300 м  +18.3  +8.3  52  +17  +18    1006.3  1001.8         
18:53 22.05 З  16 км    5/5 300 м  +18.9  +8.3  50  +19  +20    1006.3  1001.8         
19:53 22.05 З  10  16 км    8/5 300 м
[средняя] 
+18.9  +8.9  52  +18  +18    1006.2  1001.8         
20:53 22.05 З  16 км    8/2 1050 м
[средняя верхняя] 
+16.1  +9.4  64  +14  +15    1007.0  1002.5         
21:53 22.05 Ю  7
{10} 
13 км  гроза со слабым дождем  8/8 1380 м
[верхняя] 
+15.0  +8.9  67  +13  +14    1006.9  1002.5         
22:10 22.05 Ю  16 км    8/5 960 м
[средняя] 
+15.6  +8.3  62  +15  +17      1002.1         
22:53 22.05 ЮЗ  16 км    5/2 960 м
[средняя верхняя] 
+17.8  +8.3  54  +17  +18    1006.7  1002.1  +14.4  +19.4  2.3   
23:53 22.05 ЮЗ  16 км    5/0 2400 м
[средняя] 
+16.1  +10.0  67  +16  +20    1007.1  1002.5         
00:53 23.05 Ю  16 км    5/0 2400 м
[средняя верхняя] 
+16.1  +10.0  67  +15  +17    1007.3  1002.8         

 

Местоположение метеостанции Los Angeles International Airport: широта 33.9381 долгота -118.3889 высота над уровнем моря 38 м.

В архиве по умолчанию представлена погода в Лос-Анджелесе за последние 1-2 суток. Обновление информации о фактической погоде в базе происходит ежечасно! Архивные данные за месяц целиком и за предыдущие месяцы Вы можете получить, выбрав интересующий диапазон дат из раскрывающегося списка и нажав кнопку "Ввод!".

Внимание! Архив погоды МЕТАР в базе сайта в настоящее время начинается c 1 января 2011 г. Нет смысла пытаться выбрать более раннюю дату.

Внимание! Время в таблицах - всемирное. Для получения местного времени необходимо прибавить поправку, которая в Лос-Анджелесе равна -8 ч.

Ветер - указаны скорость ветра в м/с и направление, откуда дует ветер: С - северный, СВ - северо-восточный, В - восточный, ЮВ - юго-восточный, Ю - южный, ЮЗ - юго-западный, З - западный, СЗ - северо-западный.
Видимость - горизонтальная дальность видимости в метрах или километрах. При видимости от 1 до 10 км при отсутствии осадков обычно наблюдается дымка, при ухудшении видимости до 1 км и менее - туман. В сухую погоду видимость может ухудшаться дымом, пылью или мглою.
Атмосферные явления - указаны явления, наблюдавшиеся в указанный момент времени.
Облачность - указаны через наклонную черту верхняя и нижняя облачность в баллах и высота нижней границы облаков в метрах. Внимание: облачность, как и прочие метеорологические величины в США измеряются автоматическими метеостанциями. Указанные значения в баллах носят условный характер и показывают процент времени, в течение которого, в среднем, лазерный луч высотомера отражался от облаков обратно.
T - Температура воздуха - температура, измеренная на высоте 2 м над землей.
Td - Температура точки росы - температура, при понижении до которой содержащийся в воздухе водяной пар достигнет насыщения.
f - Относительная влажность воздуха - влажноcть воздуха, измеренная на высоте 2 м над землей.
Te - Эффективная температура - температура, которую ощущает одетый по сезону человек в тени. Характеристика душности погоды. При расчете учитывается влияние влажности воздуха и скорости ветра на теплоощущения человека.
Tes - Эффективная температура на солнце - температура, которую ощущает человек, с поправкой на солнечный нагрев. Характеристика знойности погоды. Зависит от высоты солнца над горизонтом, облачности и скорости ветра. Ночью, в пасмурную погоду, а также при ветре 12 м/с и более поправка равна нулю.
P - Атмосферное давление - приведенное к уровню моря атмосферное давление.
Po - Атмосферное давление - измеренное на уровне метеостанции атмосферное давление.
Tmin - Минимальная температура - минимум температуры воздуха на высоте 2 м над землей.
Tmax - Максимальная температура - максимум температуры воздуха на высоте 2 м над землей.
R - Количество осадков - Количество выпавших осадков за 3 или 6 часов, мм.
SD - Снежный покров - Высота снежного покрова, см.